[[{"header":{"parameterUnit":"m.s-1","parameterCategory":1,"la1":30.2991,"la2":30.254,"lo1":-89.0895,"lo2":-89.0444,"dy":0.0017,"dx":0.0017,"nx":28,"ny":28,"refTime":"2024-06-12T03:00:00:Z","depth":0,"parameterNumber":2,"parameterNumberName":"U-component_of_WINDS"},"data":[0,0,0,0,0,0,0,0,0,0,0,0,0,0,0,0,0,0,0,0,0,0,0,0,0,0,0,0,0,0,0,0,0,0,0,0,0,0,0,0,0,0,0,0,0,0,0,0,0,0,0,0,0,0,0,0,0,0,-2.2556,-2.2556,0,-2.2565,-2.2566,-2.2566,-2.2454,-2.2451,-2.2448,-2.2445,-2.2457,-2.246,-2.2463,0,0,0,0,0,0,0,0,0,0,0,0,0,-2.2443,-2.2446,-2.2556,-2.2556,-2.2556,-2.2565,-2.2566,-2.2566,-2.2454,-2.2451,-2.2447,-2.2443,-2.2456,-2.246,-2.2463,0,0,0,0,0,0,0,0,0,0,0,0,0,-2.2477,-2.2447,-2.2556,-2.2502,-2.2497,-2.2565,-2.2566,-2.2566,-2.2455,-2.2451,-2.2446,-2.2442,-2.2455,-2.2459,-2.2464,-2.2585,0,0,-2.2479,-2.2481,0,0,0,0,0,0,0,0,-2.2475,-2.2481,-2.251,-2.2506,-2.2501,-2.2504,-2.253,-2.2572,-2.2456,-2.2471,-2.2445,-2.2439,-2.2476,-2.2479,-2.2491,-2.2586,-2.2586,-2.2479,-2.2482,-2.2484,-2.2485,0,0,0,0,0,0,0,-2.2473,-2.248,-2.256,-2.251,-2.2505,-2.2477,-2.2477,-2.2538,-2.25,-2.247,-2.2462,-2.2464,-2.2473,-2.2487,-2.249,-2.2587,-2.2479,-2.2483,-2.2486,-2.2488,-2.2781,-2.2786,0,0,0,0,0,0,-2.2478,-2.2479,-2.256,-2.256,-2.2476,-2.2483,-2.2483,-2.2507,-2.2499,-2.2493,-2.2468,-2.2459,-2.2481,-2.2485,-2.2491,-2.2632,-2.2484,-2.2488,-2.2491,-2.2776,-2.2782,-2.2787,0,0,0,0,0,0,-2.2476,-2.2486,-2.2559,-2.2517,-2.2524,-2.249,-2.2519,-2.251,-2.2524,-2.2497,-2.249,-2.2489,-2.2477,-2.2484,-2.2562,-2.2631,-2.2491,-2.2495,-2.277,-2.2778,-2.2785,-2.2917,0,0,0,0,0,0,-2.2473,-2.2486,-2.2532,-2.2519,-2.2527,-2.2631,-2.2523,-2.2514,-2.2532,-2.252,-2.2515,-2.251,-2.2474,-2.2556,-2.2567,-2.2635,-2.2499,-2.2764,-2.2774,-2.2782,-2.2907,-2.2928,-2.2947,0,0,0,0,0,-2.2469,-2.2569,-2.2534,-2.2545,-2.2584,-2.2635,-2.264,-2.2596,-2.2538,-2.2584,-2.2566,-2.251,-2.2621,-2.2565,-2.2577,-2.2647,-2.276,-2.2771,-2.2782,-2.2898,-2.2924,-2.2946,0,0,0,0,0,0,-2.2592,-2.2567,-2.2528,-2.2627,-2.2634,-2.2616,-2.2673,-2.2626,-2.265,-2.2639,-2.2583,-2.2583,-2.2671,-2.2666,-2.2604,-2.2764,-2.268,-2.2694,-2.2764,-2.2789,-2.2809,-2.2809,-2.2503,0,0,0,0,0,-2.263,-2.2674,-2.2649,-2.2739,-2.2744,-2.2708,-2.2729,-2.2695,-2.27,-2.2703,-2.2692,-2.27,-2.2736,-2.2762,-2.2794,-2.2904,-2.2902,-2.2958,-2.2979,-2.2995,-2.3009,-2.3067,-2.3092,-2.2824,-2.2824,-2.2824,0,0,-2.2711,-2.2702,-2.2733,-2.2764,-2.2765,-2.2812,-2.2712,-2.2766,-2.28,-2.2712,-2.2785,-2.2777,-2.2782,-2.2877,-2.2919,-2.2876,-2.3082,-2.3009,-2.3023,-2.3027,-2.3081,-2.3106,-2.3129,-2.2831,-2.283,-2.2829,0,0,-2.2882,-2.2879,-2.2953,-2.2956,-2.2959,-2.2934,-2.2952,-2.2941,-2.2932,-2.3005,-2.2939,-2.2979,-2.3043,-2.305,-2.3062,-2.3232,-2.3182,-2.3244,-2.335,-2.3407,-2.3429,-2.3447,-2.3509,-2.3532,-2.3257,-2.3258,-2.3258,0,-2.2982,-2.3049,-2.2998,-2.3056,-2.3071,-2.2991,-2.3066,-2.3072,-2.3086,-2.3099,-2.305,-2.3128,-2.3126,-2.3222,-2.3263,-2.3275,-2.3294,-2.3246,-2.3429,-2.3447,-2.3464,-2.3523,-2.3546,-2.3265,-2.3264,-2.3264,-2.3263,0,-2.3172,-2.322,-2.328,-2.3294,-2.3316,-2.3382,-2.3341,-2.3369,-2.3332,-2.3312,-2.3387,-2.3381,-2.3411,-2.343,-2.3395,-2.3521,-2.3495,-2.3439,-2.3354,-2.3498,-2.3552,-2.3574,-2.3276,-2.3274,-2.3271,-2.3269,0,0,-2.3424,-2.3407,-2.343,-2.3435,-2.3432,-2.3468,-2.353,-2.3558,-2.3584,-2.3595,-2.3647,-2.3702,-2.365,-2.3663,-2.3627,-2.3677,-2.3814,-2.3615,-2.3614,-2.3654,-2.3953,-2.3997,-2.4024,-2.3779,-2.3783,-2.3786,-2.3953,0,-2.3591,-2.3697,-2.3651,-2.3762,-2.3806,-2.3729,-2.3783,-2.3787,-2.3769,-2.3804,-2.3784,-2.3825,-2.3752,-2.376,-2.3806,-2.3788,-2.3874,-2.3775,-2.3828,-2.3831,-2.3832,-2.4052,-2.4099,-2.4257,-2.3974,-2.3978,-2.398,0,-2.3801,-2.382,-2.3935,-2.3922,-2.3939,-2.3989,-2.401,-2.4044,-2.4046,-2.403,-2.4044,-2.3997,-2.4057,-2.3971,-2.4054,-2.3988,-2.4006,-2.4001,-2.4006,-2.4011,-2.3916,-2.4065,-2.4306,-2.433,-2.4013,-2.401,-2.4008,0,-2.3975,-2.4029,-2.4105,-2.4111,-2.4098,-2.4135,-2.4132,-2.4129,-2.4148,-2.4167,-2.4179,-2.4205,-2.422,-2.4241,-2.4201,-2.4142,-2.4291,-2.4201,-2.428,-2.4281,-2.4317,-2.4316,-2.4566,-2.4326,-2.4325,-2.4325,-2.4324,0,-2.4168,-2.4242,-2.4183,-2.423,-2.4309,-2.4256,-2.4336,-2.4324,-2.4323,-2.4366,-2.43,-2.4342,-2.4287,-2.4324,-2.4293,-2.4367,-2.4374,-2.4363,-2.4355,-2.4371,-2.4372,-2.4384,-2.4373,-2.4331,-2.433,-2.4328,-2.4327,0,-2.4378,-2.434,-2.4418,-2.4398,-2.4395,-2.4455,-2.4438,-2.4481,-2.4457,-2.4513,-2.4523,-2.4487,-2.4527,-2.4489,-2.4527,-2.4506,-2.4606,-2.458,-2.4605,-2.4599,-2.4681,-2.4674,-2.4949,-2.4983,-2.4719,-2.4722,-2.4724,0,-2.4504,-2.4559,-2.4544,-2.4568,-2.4568,-2.4607,-2.4626,-2.4575,-2.4597,-2.4603,-2.4645,-2.4679,-2.4704,-2.4771,-2.4749,-2.4777,-2.4753,-2.4847,-2.4757,-2.4771,-2.4757,-2.4755,-2.476,-2.4867,-2.487,-2.4872,-2.4875,0,-2.4734,-2.4712,-2.4741,-2.4764,-2.4788,-2.4804,-2.4815,-2.4838,-2.4785,-2.4813,-2.4853,-2.4872,-2.4909,-2.4944,-2.4965,-2.4962,-2.4911,-2.4902,-2.4923,-2.4941,-2.4953,-2.4949,-2.4657,-2.4897,-2.4895,-2.4893,-2.4892,-2.4891,-2.4907,-2.4951,-2.4948,-2.4983,-2.4985,-2.4996,-2.5035,-2.5015,-2.5047,-2.5073,-2.504,-2.5089,-2.5089,-2.5112,-2.5114,-2.5152,-2.5112,-2.5141,-2.5149,-2.5157,-2.517,-2.4945,-2.5155,-2.5154,-2.5154,-2.5153,-2.5153,0,-2.5134,-2.5127,-2.5159,-2.5176,-2.5203,-2.5149,-2.5158,-2.5185,-2.5228,-2.5231,-2.5256,-2.5301,-2.5334,-2.5313,-2.5342,-2.5376,-2.5353,-2.5385,-2.5383,-2.5383,-2.5203,-2.5183,-2.5403,-2.5403,-2.5403,-2.5403,-2.5403,-2.5403,-2.5256,-2.5329,-2.5306,-2.538,-2.5372,-2.5419,-2.5428,-2.5438,-2.544,-2.5493,-2.552,-2.5505,-2.55,-2.5526,-2.5554,-2.5547,-2.5561,-2.5603,-2.5588,-2.542,-2.5396,-2.5373,-2.5354,-2.5606,-2.5606,-2.5765,-2.5767,-2.5768]},{"header":{"parameterUnit":"m.s-1","parameterCategory":1,"la1":30.2991,"la2":30.254,"lo1":-89.0895,"lo2":-89.0444,"dy":0.0017,"dx":0.0017,"nx":28,"ny":28,"refTime":"2024-06-12T03:00:00:Z","depth":0,"parameterNumber":3,"parameterNumberName":"V-component_of_WINDS"},"data":[0,0,0,0,0,0,0,0,0,0,0,0,0,0,0,0,0,0,0,0,0,0,0,0,0,0,0,0,0,0,0,0,0,0,0,0,0,0,0,0,0,0,0,0,0,0,0,0,0,0,0,0,0,0,0,0,0,0,-4.2963,-4.2964,0,-4.3051,-4.3052,-4.3053,-4.3011,-4.3009,-4.3007,-4.3005,-4.309,-4.3095,-4.3099,0,0,0,0,0,0,0,0,0,0,0,0,0,-4.2752,-4.2757,-4.2963,-4.2964,-4.2965,-4.3051,-4.3052,-4.3053,-4.3012,-4.3009,-4.3006,-4.3004,-4.3089,-4.3094,-4.3099,0,0,0,0,0,0,0,0,0,0,0,0,0,-4.2842,-4.2758,-4.2962,-4.2955,-4.2955,-4.3051,-4.3052,-4.3054,-4.3012,-4.3009,-4.3006,-4.3003,-4.3087,-4.3094,-4.31,-4.3207,0,0,-4.312,-4.3123,0,0,0,0,0,0,0,0,-4.2837,-4.285,-4.2955,-4.2955,-4.2956,-4.3017,-4.3009,-4.3105,-4.3013,-4.299,-4.3005,-4.3001,-4.3068,-4.3076,-4.31,-4.3211,-4.3215,-4.3121,-4.3125,-4.3127,-4.3129,0,0,0,0,0,0,0,-4.2831,-4.2846,-4.2997,-4.2956,-4.2957,-4.2945,-4.2954,-4.3027,-4.3047,-4.2992,-4.2989,-4.3001,-4.3068,-4.3094,-4.3102,-4.3216,-4.3121,-4.3126,-4.313,-4.3133,-4.3418,-4.3422,0,0,0,0,0,0,-4.2826,-4.2841,-4.2995,-4.3,-4.2887,-4.2951,-4.2962,-4.3001,-4.3046,-4.305,-4.3003,-4.2998,-4.3084,-4.3094,-4.3105,-4.3232,-4.3127,-4.3134,-4.3137,-4.3415,-4.3419,-4.3423,0,0,0,0,0,0,-4.2822,-4.284,-4.2991,-4.292,-4.2938,-4.2959,-4.3003,-4.3004,-4.303,-4.3055,-4.3057,-4.3027,-4.3082,-4.3095,-4.3182,-4.3235,-4.3136,-4.3142,-4.341,-4.3416,-4.3421,-4.3489,0,0,0,0,0,0,-4.2816,-4.2839,-4.2881,-4.2921,-4.2942,-4.3069,-4.3006,-4.3008,-4.3042,-4.3036,-4.3077,-4.3081,-4.308,-4.3173,-4.3189,-4.3242,-4.3148,-4.3406,-4.3413,-4.3419,-4.3482,-4.3496,-4.3508,0,0,0,0,0,-4.2808,-4.2896,-4.2883,-4.2902,-4.2996,-4.3072,-4.3084,-4.3084,-4.3046,-4.3088,-4.3104,-4.3079,-4.3226,-4.3182,-4.32,-4.3255,-4.3402,-4.3411,-4.3419,-4.3476,-4.3493,-4.3508,0,0,0,0,0,0,-4.286,-4.2901,-4.2888,-4.2991,-4.3029,-4.3065,-4.3118,-4.3102,-4.3149,-4.3142,-4.3138,-4.3147,-4.3237,-4.3255,-4.3204,-4.3361,-4.3308,-4.3321,-4.3346,-4.3362,-4.3375,-4.3368,-4.3153,0,0,0,0,0,-4.2883,-4.2944,-4.2976,-4.3064,-4.3083,-4.3098,-4.3131,-4.3127,-4.3165,-4.318,-4.3202,-4.3239,-4.3293,-4.3329,-4.338,-4.3484,-4.3492,-4.3531,-4.3544,-4.3555,-4.3565,-4.362,-4.3638,-4.345,-4.345,-4.345,0,0,-4.2932,-4.2962,-4.3,-4.3075,-4.3103,-4.3164,-4.3111,-4.3178,-4.3222,-4.319,-4.3273,-4.3291,-4.3331,-4.3427,-4.347,-4.3444,-4.3619,-4.3565,-4.3574,-4.3578,-4.3631,-4.3648,-4.3664,-4.3456,-4.3455,-4.3454,0,0,-4.3052,-4.3081,-4.3158,-4.3188,-4.3232,-4.3241,-4.3259,-4.3298,-4.3309,-4.3393,-4.337,-4.3422,-4.3516,-4.3545,-4.3572,-4.3703,-4.3681,-4.3719,-4.3787,-4.384,-4.3855,-4.3868,-4.3914,-4.393,-4.3729,-4.373,-4.373,0,-4.3106,-4.3199,-4.3198,-4.3267,-4.33,-4.3275,-4.3351,-4.3379,-4.3438,-4.346,-4.3431,-4.3548,-4.3573,-4.3675,-4.3707,-4.373,-4.3749,-4.3714,-4.3854,-4.3867,-4.3879,-4.3922,-4.3939,-4.3734,-4.3733,-4.3733,-4.3733,0,-4.3263,-4.3327,-4.3383,-4.3442,-4.3481,-4.3553,-4.3561,-4.36,-4.3593,-4.3605,-4.3689,-4.3719,-4.3776,-4.3799,-4.3793,-4.39,-4.3883,-4.3854,-4.3801,-4.3901,-4.3941,-4.3958,-4.374,-4.3738,-4.3737,-4.3736,0,0,-4.3417,-4.3475,-4.3496,-4.3521,-4.3569,-4.3617,-4.3687,-4.3744,-4.3777,-4.3818,-4.3875,-4.3955,-4.3929,-4.3959,-4.3955,-4.4003,-4.4103,-4.3968,-4.3969,-4.3991,-4.4221,-4.4242,-4.4262,-4.4089,-4.4093,-4.4095,-4.4218,0,-4.354,-4.3665,-4.3666,-4.378,-4.3838,-4.3815,-4.3875,-4.391,-4.3922,-4.3972,-4.3984,-4.4041,-4.4002,-4.402,-4.4067,-4.4081,-4.4149,-4.4072,-4.4141,-4.4143,-4.4131,-4.4283,-4.4306,-4.442,-4.4234,-4.4236,-4.4238,0,-4.37,-4.3747,-4.3867,-4.3905,-4.393,-4.3985,-4.4036,-4.4085,-4.4122,-4.4128,-4.4162,-4.4151,-4.422,-4.4166,-4.426,-4.4208,-4.4236,-4.4247,-4.4252,-4.4257,-4.4196,-4.4292,-4.4456,-4.4473,-4.4263,-4.4261,-4.426,0,-4.3799,-4.3893,-4.3977,-4.4,-4.4046,-4.4085,-4.4106,-4.4141,-4.4174,-4.4219,-4.424,-4.4292,-4.432,-4.4359,-4.4361,-4.4321,-4.4456,-4.4402,-4.446,-4.446,-4.4489,-4.4487,-4.466,-4.4509,-4.4509,-4.4508,-4.4508,0,-4.3935,-4.4009,-4.4022,-4.4073,-4.4155,-4.4155,-4.4235,-4.4252,-4.4283,-4.4336,-4.4319,-4.4368,-4.4369,-4.4419,-4.4421,-4.4498,-4.4511,-4.4515,-4.4515,-4.4517,-4.4516,-4.4534,-4.4526,-4.4513,-4.4512,-4.4511,-4.451,0,-4.406,-4.4072,-4.4161,-4.4198,-4.4209,-4.4268,-4.4298,-4.4346,-4.4357,-4.4424,-4.444,-4.4456,-4.4514,-4.452,-4.4587,-4.4588,-4.4681,-4.4672,-4.4669,-4.4667,-4.4725,-4.4719,-4.4915,-4.494,-4.4773,-4.4775,-4.4776,0,-4.4146,-4.4202,-4.4246,-4.4281,-4.4304,-4.4361,-4.4395,-4.4397,-4.4433,-4.448,-4.4522,-4.4579,-4.4624,-4.4718,-4.4734,-4.4785,-4.4777,-4.4842,-4.4784,-4.4784,-4.4776,-4.4773,-4.4777,-4.4852,-4.4854,-4.4856,-4.4857,0,-4.4296,-4.4299,-4.4351,-4.4405,-4.4447,-4.4488,-4.4528,-4.4557,-4.4563,-4.4604,-4.4664,-4.47,-4.4768,-4.4824,-4.4874,-4.4893,-4.4876,-4.4875,-4.4891,-4.4893,-4.4888,-4.4891,-4.4698,-4.487,-4.4869,-4.4868,-4.4867,-4.4867,-4.4403,-4.4452,-4.4491,-4.4548,-4.4578,-4.4615,-4.4662,-4.4679,-4.4729,-4.4787,-4.4784,-4.485,-4.4884,-4.495,-4.4973,-4.5023,-4.5001,-4.5025,-4.5031,-4.5036,-4.5042,-4.4881,-4.5032,-4.5032,-4.5032,-4.5031,-4.5031,0,-4.4552,-4.4576,-4.4629,-4.4685,-4.473,-4.4711,-4.4753,-4.4791,-4.485,-4.4885,-4.493,-4.4998,-4.5052,-4.5073,-4.5125,-4.5161,-4.5154,-4.5175,-4.5172,-4.5176,-4.5059,-4.5039,-4.5179,-4.5179,-4.5179,-4.5179,-4.5179,-4.5179,-4.4635,-4.4716,-4.4724,-4.4819,-4.4841,-4.4907,-4.4932,-4.4966,-4.4993,-4.5071,-4.5116,-4.513,-4.5159,-4.5213,-4.5261,-4.5265,-4.5285,-4.5309,-4.531,-4.5199,-4.5184,-4.517,-4.5152,-4.5313,-4.5313,-4.5422,-4.5423,-4.5424]}]]